utc_time,unix_time,temp,cond,salinity,tds,chla_rfu,chla_ugl,bga_rfu,bga_ugl,odo,sat,nitrate_um,nitrogen_mg,stage,area,discharge,total_discharge
2018-04-01 00:00:00+00:00,1522541280,28.57,36741.59,28.72,8.21,15.95,16.12,44.66,,45.1,64.48,38.566,0.54019,0.917,1.4672,-0.0439,-0.0878
2018-04-01 00:20:00+00:00,1522542480,28.58,37114.49,28.72,8.23,15.31,14.69,42.86,,46.9,58.77,36.707,0.51411,0.917,1.4672,0.02615,0.0523
2018-04-01 00:40:00+00:00,1522543681,26.68,34994.4,27,8.3,19.36,17.47,54.22,,52.58,69.88,30.404,0.42586,0.895,1.432,-0.2771,-0.5542
2018-04-01 01:00:00+00:00,1522544880,27.48,36168.53,27.72,8.26,16.45,16.02,46.07,,49.24,64.08,30.057,0.421,0.897,1.4352,-0.2777,-0.5554
2018-04-01 01:20:00+00:00,1522546080,27.01,36164.28,27.3,8.42,16.91,14.73,47.34,,82.97,58.93,23.535,0.32966,0.8885,1.4216,-0.4389,-0.8778
2018-04-01 01:40:00+00:00,1522547280,25.38,34345.1,25.8,8.5,16.84,14.28,47.15,,96.29,57.12,22.603,0.31661,0.887,1.4192,-0.3766,-0.7532
2018-04-01 02:00:00+00:00,1522548480,24.98,34282.71,25.44,8.52,17.97,15.79,50.33,,106.78,63.16,19.255,0.2697,0.897,1.4352,-0.1543,-0.3086
2018-04-01 02:20:00+00:00,1522549680,24.48,33650.02,24.98,8.57,19.99,17.85,55.97,,122.21,71.38,15.693,0.21983,0.9,1.44,0.00475,0.0095
2018-04-01 02:40:00+00:00,1522550880,24.5,33741.32,24.99,8.57,20.9,18.75,58.53,,96.59,74.99,18.539,0.25967,0.898,1.4368,0.0416,0.0832
2018-04-01 03:00:00+00:00,1522552080,24.02,33540.18,24.55,8.63,19.74,17.68,55.26,,147.5,70.72,21.574,0.30219,0.899,1.4384,-0.0013,-0.0026
2018-04-01 03:20:00+00:00,1522553280,23.17,32694.34,23.76,8.66,20.14,18.39,56.38,,159.55,73.55,19.747,0.27657,0.9015,1.4424,-0.02285,-0.0457
2018-04-01 03:40:00+00:00,1522554480,22.64,31874.95,23.27,8.63,17.59,15.67,49.26,,145.16,62.7,24.129,0.33796,0.905,1.448,0.0014,0.0028
2018-04-01 04:00:00+00:00,1522555680,24.89,35393.63,25.36,8.67,20.69,18.94,57.93,,174.03,75.75,19.35,0.27101,0.907,1.4512,0.0394,0.0788
2018-04-01 04:20:00+00:00,1522556880,26.64,37672.5,26.97,8.67,20.55,18.86,57.55,,171.3,75.45,20.82,0.29163,0.9065,1.4504,0.07325,0.1465
2018-04-01 04:40:00+00:00,1522558080,26.7,38113.11,27.02,8.68,18.51,16.76,51.84,,187.12,67.03,22.073,0.30918,0.907,1.4512,0.0719,0.1438
2018-04-01 05:00:00+00:00,1522559280,25.23,36118.08,25.67,8.66,18.72,16.76,52.42,,170.45,67.03,24.021,0.33644,0.908,1.4528,0.1332,0.2664
2018-04-01 05:20:00+00:00,1522560480,24.62,35684.4,25.12,8.71,17.05,15.57,47.74,,195.71,62.28,23.314,0.32656,0.9095,1.4552,0.10955,0.2191
2018-04-01 05:40:00+00:00,1522561680,24.53,35826.8,25.04,8.71,15.89,13.68,44.5,,205.83,54.72,23.881,0.33448,0.91,1.456,0.0953,0.1906
2018-04-01 06:00:00+00:00,1522562880,26.17,37551.72,26.53,8.61,17.16,16.01,48.05,,179.69,64.03,27.621,0.3869,0.915,1.464,0.0671,0.1342
2018-04-01 06:20:00+00:00,1522564080,25.61,37059.7,26.02,8.67,17.57,16.42,49.19,,200.36,65.7,25.417,0.35603,0.9195,1.4712,0.062,0.124
2018-04-01 06:40:00+00:00,1522565280,26.48,38006.13,26.82,8.64,19.11,17.8,53.51,,185.94,71.19,27.832,0.38981,0.922,1.4752,0.1091,0.2182
2018-04-01 07:00:00+00:00,1522566480,28.55,40556.87,28.7,8.62,17.53,16.12,49.09,,185.76,64.46,25.589,0.35841,0.921,1.4736,0.1062,0.2124
2018-04-01 07:20:00+00:00,1522567680,26.51,37929.07,26.85,8.57,15.12,13.32,42.34,,173.13,53.28,28.271,0.39598,0.924,1.4784,0.11135,0.2227
2018-04-01 07:40:00+00:00,1522568880,26.87,37880.41,27.18,8.42,13.22,12.98,37.01,,154.22,51.91,28.724,0.40232,0.927,1.4832,0.1736,0.3472
2018-04-01 08:00:00+00:00,1522570080,24.53,35690.07,25.03,8.62,17.96,17.45,50.28,,211.07,69.82,23.91,0.33492,0.925,1.48,0.187,0.374
2018-04-01 08:20:00+00:00,1522571280,26.65,38455.76,26.98,8.67,20.17,19.2,56.48,,226.54,76.8,19.638,0.27505,0.918,1.4688,0.15535,0.3107
2018-04-01 08:40:00+00:00,1522572480,25.73,37275.81,26.14,8.71,23.13,22.2,64.76,,228.81,88.81,18.232,0.25538,0.923,1.4768,0.0774,0.1548
2018-04-01 09:00:00+00:00,1522573680,26.6,38437.43,26.94,8.75,28,27.09,78.4,,223.37,108.34,18.442,0.25832,0.923,1.4768,0.1244,0.2488
2018-04-01 09:20:00+00:00,1522574880,26.21,37934.69,26.58,8.68,30.13,31.01,84.36,,185.03,124.02,18.749,0.26263,0.926,1.4816,0.0756,0.1512
2018-04-01 09:40:00+00:00,1522576080,25.66,37106.53,26.07,8.67,31.92,32.52,89.39,,161.39,130.07,17.572,0.24613,0.927,1.4832,0.125,0.25
2018-04-01 10:00:00+00:00,1522577279,24.1,34835.16,24.63,8.7,31.52,31.9,88.27,,184.72,127.58,18.899,0.2647,0.927,1.4832,0.0611,0.1222
2018-04-01 10:20:00+00:00,1522578480,22.07,32244.83,22.75,8.61,29.04,29.6,81.32,,163.82,118.39,18.786,0.26314,0.931,1.4896,0.05445,0.1089
2018-04-01 10:40:00+00:00,1522579679,26.66,38121.77,26.98,8.57,31.01,31.15,86.83,,142.79,124.6,19.695,0.27587,0.933,1.4928,0.0881,0.1762
2018-04-01 11:00:00+00:00,1522580880,26.27,37524.6,26.63,8.58,29.43,30.83,82.42,,146.92,123.33,18.902,0.26477,0.934,1.4944,0.1148,0.2296
2018-04-01 11:20:00+00:00,1522582080,26.79,38022.23,27.1,8.6,34.47,27.08,96.51,,157.99,108.33,18.534,0.25959,0.9345,1.4952,0.0259,0.0518
2018-04-01 11:40:00+00:00,1522583280,26.81,37712.25,27.12,8.59,26.43,27.81,74.01,,152.47,111.24,19.409,0.27187,0.935,1.496,0.0476,0.0952
2018-04-01 12:00:00+00:00,1522584480,29.07,40462.49,29.17,8.55,26.88,27.74,75.27,,141.28,110.97,19.316,0.27054,0.935,1.496,-0.007,-0.014
2018-04-01 12:20:00+00:00,1522585680,30.09,41696.7,30.08,8.53,24.62,25.66,68.94,,137.15,102.64,19.021,0.26644,0.9355,1.4968,0.007,0.014
2018-04-01 12:40:00+00:00,1522586880,28.28,39016.17,28.45,8.58,24,24.82,67.2,,148.07,99.28,18.935,0.26522,0.934,1.4944,-0.0644,-0.1288
2018-04-01 13:00:00+00:00,1522588079,27.91,38355.26,28.12,8.57,24.47,23.75,68.51,,149.43,95.02,20.137,0.28207,0.923,1.4768,-0.3317,-0.6634
2018-04-01 13:20:00+00:00,1522589280,28.96,39573.42,29.06,8.53,25.22,26.53,70.62,,128.96,106.13,18.466,0.25864,0.9095,1.4552,-0.5338,-1.0676
2018-04-01 13:40:00+00:00,1522590479,28.14,38387.71,28.32,8.55,24.68,25.74,69.1,,127.58,102.96,19.964,0.27962,0.901,1.4416,-0.6052,-1.2104
2018-04-01 14:00:00+00:00,1522591680,28.06,38244.21,28.25,8.52,24.76,25.32,69.33,,119.99,101.29,20.157,0.28231,0.898,1.4368,-0.5668,-1.1336
2018-04-01 14:20:00+00:00,1522592879,28.32,38206.4,28.48,8.52,23.27,24.02,65.16,,123.64,96.09,21.7,0.30394,0.8935,1.4296,-0.5298,-1.0596
2018-04-01 14:40:00+00:00,1522594080,28.88,38695.35,28.99,8.5,22.95,23.55,64.27,,117.07,94.21,22.635,0.31706,0.903,1.4448,-0.2081,-0.4162
2018-04-01 15:00:00+00:00,1522595279,25.54,34326.03,25.96,8.51,23.87,22.8,66.84,,116.31,91.21,24.774,0.34702,0.907,1.4512,0.0801,0.1602
2018-04-01 15:20:00+00:00,1522596479,29.94,39687.45,29.95,8.45,23.7,23.92,66.35,,96.77,95.68,23.549,0.32982,0.903,1.4448,0.04725,0.0945
2018-04-01 15:40:00+00:00,1522597680,29.8,39264.56,29.82,8.45,30.06,23.89,84.17,,93.83,95.54,24.422,0.34205,0.905,1.448,0.0569,0.1138
2018-04-01 16:00:00+00:00,1522598879,29.67,39101.44,29.7,8.46,24.08,23.7,67.43,,97.48,94.8,23.398,0.32774,0.906,1.4496,0.0041,0.0082
2018-04-01 16:20:00+00:00,1522600080,27.31,36178,27.57,8.49,24.22,25.12,67.83,,95.34,100.47,20.661,0.28939,0.9075,1.452,0.05295,0.1059
2018-04-01 16:40:00+00:00,1522601280,28.77,37823.31,28.89,8.48,25.03,25.18,70.07,,93.03,100.72,21.934,0.30722,0.904,1.4464,0.0392,0.0784
2018-04-01 17:00:00+00:00,1522602479,28.71,37773.44,28.84,8.46,23.53,23.78,65.89,,78.49,95.14,21.409,0.29985,0.905,1.448,0.0393,0.0786
2018-04-01 17:20:00+00:00,1522603679,29.35,38239.38,29.42,8.44,22.92,23.54,64.16,,81.36,94.18,21.687,0.30377,0.9075,1.452,0.05635,0.1127
2018-04-01 17:40:00+00:00,1522604879,29.73,38613.55,29.76,8.39,22.76,22.57,63.73,,76.25,90.3,21.312,0.29851,0.907,1.4512,0.1412,0.2824
2018-04-01 18:00:00+00:00,1522606079,28.97,37697.77,29.08,8.32,18.66,18.48,52.25,,54.57,73.93,26.863,0.37625,0.908,1.4528,0.0068,0.0136
2018-04-01 18:20:00+00:00,1522607279,28.58,37163.35,28.73,8.22,16.35,16.04,45.78,,50.41,64.15,34.597,0.48461,0.9095,1.4552,0.06265,0.1253
2018-04-01 18:40:00+00:00,1522608479,28.78,37324.78,28.9,8.13,22.13,12.31,61.98,,40.66,49.23,40.278,0.56414,0.909,1.4544,0.0898,0.1796
2018-04-01 19:00:00+00:00,1522609680,27.99,36243.45,28.2,7.99,8.41,8.43,23.56,,41.18,33.73,36.764,0.51492,0.906,1.4496,0.1342,0.2684
2018-04-01 19:20:00+00:00,1522610880,27.56,35629.56,27.8,7.91,7.5,7.49,21,,35.72,29.97,49.594,0.69464,0.906,1.4496,0.1166,0.2332
2018-04-01 19:40:00+00:00,1522612079,28.27,36459.65,28.45,7.87,6.43,6.69,18,,29.41,26.76,50.118,0.70197,0.903,1.4448,0.1135,0.227
2018-04-01 20:00:00+00:00,1522613279,26.34,34065.45,26.7,8.31,26.15,27.59,73.23,,47.85,110.35,24.207,0.33905,0.903,1.4448,0.1364,0.2728
2018-04-01 20:20:00+00:00,1522614480,25.59,33338.33,26,8.41,31.09,30.72,87.04,,42.81,122.86,24.666,0.34551,0.9055,1.4488,0.0447,0.0894
2018-04-01 20:40:00+00:00,1522615679,24.03,31668.75,24.57,8.43,32.99,33.66,92.36,,35.96,134.64,21.534,0.30161,0.907,1.4512,0.095,0.19
2018-04-01 21:00:00+00:00,1522616880,24.48,32261.55,24.98,8.49,38.36,37.44,107.4,,29.12,149.77,27.875,0.39042,0.907,1.4512,0.0814,0.1628
2018-04-01 21:20:00+00:00,1522618080,26.29,34554.43,26.64,8.52,43.27,43.08,121.17,,17.39,172.31,27.852,0.39012,0.909,1.4544,0.05645,0.1129
2018-04-01 21:40:00+00:00,1522619279,23.01,30728.53,23.62,8.53,47.16,44.58,132.05,,10.71,178.33,57.822,0.80988,0.909,1.4544,0.0884,0.1768
2018-04-01 22:00:00+00:00,1522620479,23.49,31284.59,24.06,8.56,46.8,49.43,131.03,,4.84,197.74,,,0.907,1.4512,0.0475,0.095
2018-04-01 22:20:00+00:00,1522621679,25.34,33462.94,25.77,8.49,48.02,48.72,134.45,,4.67,194.9,29.17,0.40856,0.908,1.4528,0.07745,0.1549
2018-04-01 22:40:00+00:00,1522622879,26.33,34629.56,26.68,8.48,50.3,49.86,140.85,,3,199.44,36.726,0.5144,0.909,1.4544,0.0082,0.0164
2018-04-01 23:00:00+00:00,1522624079,26.46,34684.09,26.8,8.45,41.77,42.96,116.96,,7.72,171.84,22.621,0.31684,0.908,1.4528,0.0829,0.1658
2018-04-01 23:20:00+00:00,1522625279,25.38,33412.06,25.81,8.46,40.16,41.1,112.45,,10.45,164.42,22.616,0.31678,0.9105,1.4568,0.0048,0.0096
2018-04-01 23:40:00+00:00,1522626479,26.35,34471.71,26.7,8.46,36.35,38.62,101.78,,14.74,154.49,22.983,0.32193,0.91,1.456,0.0272,0.0544
2018-04-02 00:00:00+00:00,1522627679,27,35252.73,27.3,8.44,39.19,41.5,109.72,,11.48,166.01,24.267,0.33989,0.909,1.4544,0.034,0.068
2018-04-02 00:20:00+00:00,1522628879,27.16,35393.05,27.44,8.44,34.21,36.58,95.78,,17.41,146.32,22.473,0.31477,0.9095,1.4552,0.01705,0.0341
2018-04-02 00:40:00+00:00,1522630079,26.41,34593.92,26.75,8.41,36.42,38.32,101.96,,19.84,153.28,17.185,0.2407,0.908,1.4528,0.0272,0.0544
2018-04-02 01:00:00+00:00,1522631279,26.12,34693.07,26.48,8.51,32.17,30.12,90.09,,52.57,120.48,22.288,0.31217,0.909,1.4544,0.0231,0.0462
2018-04-02 01:20:00+00:00,1522632479,25.94,34513.69,26.32,8.46,30.85,31.52,86.39,,43.57,126.07,16.831,0.23576,0.908,1.4528,0.0272,0.0544
2018-04-02 01:40:00+00:00,1522633679,24.54,33194.53,25.03,8.49,32.58,31.51,91.22,,56.04,126.02,18.485,0.25892,0.908,1.4528,0.0204,0.0408
2018-04-02 02:00:00+00:00,1522634879,25.53,34748.19,25.94,8.54,29.74,28.36,83.28,,78.91,113.44,17.096,0.23948,0.911,1.4576,-0.0205,-0.041
2018-04-02 02:20:00+00:00,1522636079,26.61,36191.96,26.93,8.56,29.53,28.35,82.68,,90.21,113.39,19.316,0.27054,0.917,1.4672,-0.0055,-0.011
2018-04-02 02:40:00+00:00,1522637278,26.63,36600.18,26.95,8.54,28.38,27.93,79.45,,97.84,111.71,19.346,0.27099,0.918,1.4688,0.0728,0.1456
2018-04-02 03:00:00+00:00,1522638479,26.49,36863.9,26.82,8.6,26.17,25.24,73.27,,126.48,100.98,17.825,0.24968,0.918,1.4688,0.0247,0.0494
2018-04-02 03:20:00+00:00,1522639679,25.03,35415.61,25.49,8.63,24.45,22.51,68.46,,145.24,90.05,20.805,0.29142,0.9205,1.4728,0.0007,0.0014
2018-04-02 03:40:00+00:00,1522640879,22.33,32232.13,22.99,8.64,25.29,23.08,70.81,,157.38,92.34,19.609,0.27466,0.927,1.4832,0.0347,0.0694
2018-04-02 04:00:00+00:00,1522642079,22.89,33202.74,23.52,8.66,24.7,22.81,69.17,,166.07,91.24,23.356,0.32715,0.925,1.48,0.0637,0.1274
2018-04-02 04:20:00+00:00,1522643278,22.58,33179.37,23.23,8.67,21.57,19.73,60.39,,182.62,78.94,20.449,0.28643,0.921,1.4736,0.06135,0.1227
2018-04-02 04:40:00+00:00,1522644479,23.12,34236.1,23.74,8.7,23.63,19.54,66.16,,200.89,78.18,16.024,0.22445,0.923,1.4768,-0.0083,-0.0166
2018-04-02 05:00:00+00:00,1522645679,22.97,34261.23,23.6,8.7,19.02,17.06,53.26,,205.52,68.23,17.286,0.24213,0.924,1.4784,0.1287,0.2574
2018-04-02 05:20:00+00:00,1522646879,21.62,32371.68,22.34,8.62,19.67,17.43,55.07,,172.09,69.71,19.09,0.2674,0.927,1.4832,0.0757,0.1514
2018-04-02 05:40:00+00:00,1522648079,22.86,34216.63,23.5,8.66,18.45,16.44,51.67,,197.9,65.74,18.596,0.26048,0.928,1.4848,0.0709,0.1418
2018-04-02 06:00:00+00:00,1522649279,23.44,35194.09,24.04,8.64,21.87,19.99,61.23,,195.77,79.95,16.883,0.23647,0.926,1.4816,0.1373,0.2746
2018-04-02 06:20:00+00:00,1522650479,26.31,39192.59,26.68,8.6,20.9,18.33,58.52,,180.99,73.33,22.697,0.31793,0.926,1.4816,0.1207,0.2414
2018-04-02 06:40:00+00:00,1522651678,26.7,39826.31,27.04,8.56,21.85,19.1,61.17,,163.99,76.4,21.64,0.30311,0.929,1.4864,0.007,0.014
2018-04-02 07:00:00+00:00,1522652879,27.82,41003.04,28.06,8.54,20.79,19.17,58.22,,153.16,76.69,22.34,0.31292,0.933,1.4928,0.1118,0.2236
2018-04-02 07:20:00+00:00,1522654078,26.83,39238.35,27.15,8.43,18.23,16.78,51.05,,133.76,67.11,24.995,0.35008,0.9355,1.4968,0.09525,0.1905
2018-04-02 07:40:00+00:00,1522655279,25.77,38115.56,26.18,8.49,20.02,17.82,56.06,,147.46,71.27,25.446,0.35643,0.939,1.5024,0.1027,0.2054
2018-04-02 08:00:00+00:00,1522656479,,,,,,,,,,,26.071,0.36517,0.941,1.5056,0.1283,0.2566
2018-04-02 08:20:00+00:00,1522657679,27.22,39946.73,27.51,8.52,22.32,20.43,62.51,,133.74,81.73,22.922,0.32106,0.942,1.5072,0.0918,0.1836
2018-04-02 08:40:00+00:00,1522658879,27.43,39640.56,27.69,8.38,18.7,17.34,52.36,,123.15,69.35,30.741,0.43058,0.945,1.512,0.1204,0.2408
2018-04-02 09:00:00+00:00,1522660078,26.49,38338.18,26.84,8.38,20.74,20.46,58.07,,99.89,81.85,30.131,0.42201,0.948,1.5168,0.1194,0.2388
2018-04-02 09:20:00+00:00,1522661279,27.73,39721.66,27.96,8.5,24.06,23.69,67.36,,134.9,94.78,25.62,0.35886,0.949,1.5184,0.1238,0.2476
2018-04-02 09:40:00+00:00,1522662478,25.94,37411.02,26.33,8.57,26.53,25.97,74.28,,145.38,103.87,24.491,0.34306,0.949,1.5184,0.0911,0.1822
2018-04-02 10:00:00+00:00,1522663679,25.87,37083.04,26.26,8.44,22.69,22.65,63.54,,119.5,90.59,29.435,0.41231,0.949,1.5184,0.0526,0.1052
2018-04-02 10:20:00+00:00,1522664879,25.63,36624.54,26.04,8.35,23.61,22.49,66.11,,64.73,89.94,31.963,0.44771,0.95,1.52,0.09545,0.1909
2018-04-02 10:40:00+00:00,1522666079,27.57,38887.9,27.81,8.35,22.8,22.64,63.84,,72.24,90.56,28.511,0.39937,0.95,1.52,0.0655,0.131
2018-04-02 11:00:00+00:00,1522667279,27.94,39053.89,28.14,8.48,24.38,24.28,68.25,,106.82,97.11,26.553,0.37191,0.949,1.5184,0.0655,0.131
2018-04-02 11:20:00+00:00,1522668478,31.81,43807.17,31.61,8.34,19.93,18.87,55.79,,96.63,75.48,34.004,0.47628,0.953,1.5248,0.01855,0.0371
2018-04-02 11:40:00+00:00,1522669679,29.38,40635.08,29.44,8.29,20.22,18.99,56.63,,86.7,75.98,34.499,0.48323,0.953,1.5248,0.09,0.18
2018-04-02 12:00:00+00:00,1522670878,30.12,41361.81,30.11,8.31,21.06,19.92,58.97,,92.23,79.69,33.153,0.46435,0.952,1.5232,0.0585,0.117
2018-04-02 12:20:00+00:00,1522672079,25.15,34952.54,25.59,8.28,17.77,17.74,49.76,,83.58,70.94,32.564,0.45612,0.9535,1.5256,0.0236,0.0472
2018-04-02 12:40:00+00:00,1522673279,24.76,34303.42,25.24,8.27,20.65,18.02,57.81,,82.47,72.06,32.908,0.4609,0.955,1.528,0.0602,0.1204
2018-04-02 13:00:00+00:00,1522674478,24.23,33441.3,24.74,8.25,15.9,15.76,44.51,,78.29,63.02,32.791,0.4593,0.955,1.528,-0.0229,-0.0458
2018-04-02 13:20:00+00:00,1522675679,24.45,33598.58,24.94,8.24,15.29,15.53,42.81,,80.37,62.11,32.554,0.45596,0.948,1.5168,-0.21615,-0.4323
2018-04-02 13:40:00+00:00,1522676878,25.84,35063.32,26.23,8.22,15.48,12.52,43.35,,86.06,50.08,36.752,0.51481,0.929,1.4864,-0.597,-1.194
2018-04-02 14:00:00+00:00,1522678079,26.34,35453.23,26.69,8.18,21.52,13.8,60.25,,77.79,55.18,38.135,0.53411,0.922,1.4752,-0.6434,-1.2868
2018-04-02 14:20:00+00:00,1522679279,27.06,36258.96,27.34,8.13,11.58,12.1,32.43,,69.12,48.41,41.427,0.58024,0.9125,1.46,-0.60575,-1.2115
2018-04-02 14:40:00+00:00,1522680478,24.83,33428.86,25.3,8.12,14.43,12.22,40.41,,52.84,48.88,41.097,0.57564,0.902,1.4432,-0.6099,-1.2198
2018-04-02 15:00:00+00:00,1522681679,25.57,34354.43,25.98,8.11,12.98,12.4,36.34,,48.6,49.61,39.427,0.55222,0.901,1.4416,-0.5621,-1.1242
2018-04-02 15:20:00+00:00,1522682878,22.9,30935.24,23.51,8.09,11.44,11.31,32.03,,58.29,45.26,43.744,0.61268,0.9045,1.4472,-0.4817,-0.9634
2018-04-02 15:40:00+00:00,1522684078,24.68,32941.52,25.17,8.12,10.09,10.16,28.24,,70.9,40.64,46.528,0.6517,0.915,1.464,-0.0068,-0.0136
2018-04-02 16:00:00+00:00,1522685279,24.55,32873.4,25.04,8.1,7.45,7.04,20.85,,70.63,28.18,49.875,0.6986,0.913,1.4608,0.0738,0.1476
2018-04-02 16:20:00+00:00,1522686478,23.28,31181.82,23.86,8.07,7.73,7.6,21.66,,61.52,30.39,62.208,0.87133,0.911,1.4576,0.0293,0.0586
2018-04-02 16:40:00+00:00,1522687679,23.8,31721.56,24.34,8.02,7.12,7.48,19.94,,53.11,29.92,65.777,0.92134,0.911,1.4576,0.0273,0.0546
2018-04-02 17:00:00+00:00,1522688878,23.41,31145.29,23.98,8.04,6.42,6.59,17.99,,59.67,26.37,64.655,0.90561,0.911,1.4576,0.0205,0.041
2018-04-02 17:20:00+00:00,1522690078,25.49,33523.79,25.91,8.03,6.92,6.64,19.39,,53.76,26.57,67.318,0.9429,0.91,1.456,0.00955,0.0191
2018-04-02 17:40:00+00:00,1522691279,25.85,33796.44,26.24,8.02,7.3,6.66,20.45,,55.75,26.64,73.297,1.02664,0.914,1.4624,0.067,0.134
2018-04-02 18:00:00+00:00,1522692478,25.73,33488.16,26.13,7.99,5.8,5.4,16.23,,46.11,21.61,75.962,1.06397,0.912,1.4592,0.0505,0.101
2018-04-02 18:20:00+00:00,1522693678,26.04,33782.58,26.41,7.95,5.61,5.94,15.7,,40.15,23.75,78.874,1.10475,0.9115,1.4584,0.0839,0.1678
2018-04-02 18:40:00+00:00,1522694879,26.04,33695.37,26.42,7.94,6.17,5.76,17.28,,35.35,23.04,80.469,1.12713,0.912,1.4592,0.0969,0.1938
2018-04-02 19:00:00+00:00,1522696078,27.23,34924.81,27.51,7.93,6.76,6.38,18.92,,36.74,25.51,77.197,1.0813,0.91,1.456,0.1117,0.2234
2018-04-02 19:20:00+00:00,1522697278,29.7,37607.27,29.75,7.94,6.62,6.29,18.54,,45.94,25.18,76.995,1.07844,0.914,1.4624,0.06775,0.1355
2018-04-02 19:40:00+00:00,1522698478,26.58,33942.1,26.92,7.92,5.81,5.79,16.26,,37.9,23.17,77.033,1.07898,0.91,1.456,0.1621,0.3242
2018-04-02 20:00:00+00:00,1522699678,26.89,34239.4,27.2,7.9,5.69,5.7,15.94,,30.16,22.79,77.803,1.08979,0.91,1.456,0.0218,0.0436
2018-04-02 20:20:00+00:00,1522700878,25.81,33038.32,26.21,7.83,7.92,8.15,22.18,,19.82,32.59,69.568,0.9744,0.913,1.4608,0.10045,0.2009
2018-04-02 20:40:00+00:00,1522702078,25.47,32135.7,25.9,8.22,20.98,19.25,58.73,,42.39,77,45.232,0.63356,0.914,1.4624,0.0561,0.1122
2018-04-02 21:00:00+00:00,1522703278,25.35,32261.27,25.8,8.32,28.64,28.09,80.2,,33.82,112.37,31.099,0.43557,0.915,1.464,0.0822,0.1644
2018-04-02 21:20:00+00:00,1522704479,25.47,32598.04,25.9,8.37,30.17,30.5,84.47,,27.01,122,25.714,0.36015,0.9125,1.46,0.1454,0.2908
2018-04-02 21:40:00+00:00,1522705678,26.86,34373.98,27.17,8.36,30.79,32.5,86.2,,21.69,129.99,28.142,0.39414,0.91,1.456,0.0735,0.147
2018-04-02 22:00:00+00:00,1522706878,23.15,30174.58,23.75,8.37,30.37,33.41,85.03,,15.49,133.65,25.521,0.35748,0.912,1.4592,0.0764,0.1528
2018-04-02 22:20:00+00:00,1522708078,21.3,28005.46,22.02,8.43,35.94,38.32,100.63,,10.85,153.29,23.249,0.32563,0.908,1.4528,0.10395,0.2079
2018-04-02 22:40:00+00:00,1522709278,22.87,29851.48,23.49,8.46,42.87,42.15,120.05,,9.09,168.59,28.614,0.4008,0.91,1.456,0.0218,0.0436
2018-04-02 23:00:00+00:00,1522710406,21.6975,17803.755,13742.47,16.355,30.855,58.315,70.03,56.91,10.655,185.385,28.9155,0.405,0.912,1.4592,0.0792,0.1584
2018-04-02 23:20:00+00:00,1522711605.5,21.917,19108.935,13914.94,17.195,28.81,56.355,65.165,55.1,10.385,183.43,27.0655,0.37908,0.914,1.4624,0.0089,0.0178
2018-04-02 23:40:00+00:00,1522712805.5,21.709,17762.26,13575.38,16.245,29.58,60.09,65.525,60.7,10.7,180.055,26.6795,0.37369,0.917,1.4672,0.07,0.14
2018-04-03 00:00:00+00:00,1522714005.5,21.843,16931.8,13956.99,15.785,30.835,59.69,69.315,60.2,10.76,160.175,27.6,0.38656,0.917,1.4672,0.0481,0.0962
2018-04-03 00:20:00+00:00,1522715205.5,21.796,17239.385,14028.49,16.03,30.09,63.675,65.215,65.98,14.71,161.35,21.971,0.30774,0.9165,1.4664,0.035,0.07
2018-04-03 00:40:00+00:00,1522716406,22.142,17134.26,14896.49,16.105,33.605,57.52,77.715,57.08,12.055,158.835,27.995,0.39213,0.917,1.4672,-0.0247,-0.0494
2018-04-03 01:00:00+00:00,1522717605.5,21.9555,16979.53,14968.15,16.105,29.65,54.935,67.175,52.36,12.055,148.505,28.1305,0.394015,0.921,1.4736,0.0372,0.0744
2018-04-03 01:20:00+00:00,1522718806,22.8725,17127.475,15229.66,15.845,31.94,64.1,70.045,67.71,10.79,170.52,23.93,0.335175,0.921,1.4736,0.0186,0.0372
2018-04-03 01:40:00+00:00,1522720005.5,22.356,18332.585,15507.31,16.995,27.58,57.2,57.725,60.3,21.5,134.345,29.8485,0.41809,0.927,1.4832,-0.093,-0.186
2018-04-03 02:00:00+00:00,1522721205.5,20.9095,18444.245,13989.79,17.125,27.5,58.875,56.315,66.53,34.47,132.61,28.876,0.404445,0.931,1.4896,0.0404,0.0808
2018-04-03 02:20:00+00:00,1522722405.5,20.007,18422.205,13522.555,17.33,23.205,45.57,49.56,45.62,38.59,121.005,30.161,0.422445,0.928,1.4848,0.0827,0.1654
2018-04-03 02:40:00+00:00,1522723605.5,21.137,17947.9,14983.995,16.965,25.925,55.04,52.965,58.85,53.305,118.155,28.681,0.401725,0.93,1.488,-0.0209,-0.0418
2018-04-03 03:00:00+00:00,1522724805.5,21.5595,17219.785,15768.865,16.525,25.875,57.855,51.015,65,58.41,124.105,24.5365,0.34367,0.931,1.4896,0.0544,0.1088
2018-04-03 03:20:00+00:00,1522726005.5,21.971,17730.11,16523.98,16.935,24.46,52.36,49.335,57.11,67.63,110.845,29.9155,0.41904,0.933,1.4928,-0.04985,-0.0997
2018-04-03 03:40:00+00:00,1522727205.5,22.0575,16804.72,17151.525,16.415,24.275,54.19,47.61,58.44,71.735,113.1,28.898,0.40478,0.938,1.5008,0.0914,0.1828
2018-04-03 04:00:00+00:00,1522728405.5,21.2205,13890.085,16140.83,14.265,20.99,45.87,49.77,94.44,76.97,90.185,28.771,0.40298,0.933,1.4928,0.0545,0.109
2018-04-03 04:20:00+00:00,1522729605.5,19.279,16261.305,14072.2,16.095,18.915,37.385,40,41.67,79.275,88.04,24.9985,0.35015,0.933,1.4928,0.04685,0.0937
2018-04-03 04:40:00+00:00,1522730805.5,20.0995,15663.95,15468.34,15.745,19.995,37.705,44.685,50.27,91.97,99.555,37.739,0.528605,0.935,1.496,0.0644,0.1288
2018-04-03 05:00:00+00:00,1522732005.5,19.4035,15791.48,14681.56,15.85,18.62,34.145,47.92,76.47,95.185,90.425,24.2375,0.3395,0.938,1.5008,0.038,0.076
2018-04-03 05:20:00+00:00,1522733133,19.1,34303.95,24.65,25.13,13.61,54.45,13.13,36.76,9.47,118.36,53.278,0.74625,0.938,1.5008,0.0787,0.1574
2018-04-03 05:40:00+00:00,1522734333,18.688,33848.07,24.53,25.02,13.91,55.65,13.27,37.16,10.17,126.11,55.988,0.7842,0.939,1.5024,0.069,0.138
2018-04-03 06:00:00+00:00,1522735533,18.571,37615.98,27.65,27.87,14.19,56.78,13.66,38.26,8.79,110.72,42.658,0.59745,0.942,1.5072,0.0551,0.1102
2018-04-03 06:20:00+00:00,1522736733,18.301,33183.27,24.22,24.73,23.42,93.68,59.99,167.99,9.73,119.45,56.099,0.78576,0.9425,1.508,0.1158,0.2316
2018-04-03 06:40:00+00:00,1522737933,18.033,36494.54,27.09,27.36,17.04,68.17,28.78,80.58,9.89,123.03,51.316,0.71875,0.943,1.5088,0.0891,0.1782
2018-04-03 07:00:00+00:00,1522739133,17.874,35165.23,26.1,26.46,17.25,69.01,16.6,46.49,9.71,118.36,51.523,0.72168,0.943,1.5088,0.1456,0.2912
2018-04-03 07:20:00+00:00,1522740333,17.8,35893.38,26.74,27.05,17.14,68.58,15.27,42.76,8.89,109.77,52.615,0.73696,0.946,1.5136,0.10635,0.2127
2018-04-03 07:40:00+00:00,1522741533,17.704,35016.01,26.08,26.45,15.47,61.87,14.81,41.47,8.21,100.77,53.547,0.75001,0.949,1.5184,0.1409,0.2818
2018-04-03 08:00:00+00:00,1522742733,17.425,33690.72,25.16,25.6,15.86,63.44,15.25,42.71,8.32,101.05,52.466,0.73488,0.95,1.52,0.1239,0.2478
2018-04-03 08:20:00+00:00,1522743932,17.005,32311.19,24.28,24.79,17.81,71.26,16.68,46.71,9.54,114.28,49.403,0.69197,0.951,1.5216,0.11335,0.2267
2018-04-03 08:40:00+00:00,1522745133,16.915,34362.25,26.05,26.41,16.15,64.61,20.43,57.2,8.72,105.37,48.275,0.67617,0.952,1.5232,0.1385,0.277
2018-04-03 09:00:00+00:00,1522746333,16.861,34643.6,26.32,26.66,15.72,62.88,15.41,43.14,8.04,97.24,49.183,0.68887,0.952,1.5232,0.1385,0.277